Time,TemperatureF,DewpointF,PressureIn,WindDirection,WindDirectionDegrees,WindSpeedMPH,WindSpeedGustMPH,Humidity,HourlyPrecipIn,Conditions,Clouds,dailyrainin,SoftwareType,DateUTC
2013-05-03 00:00:00,37.2,27.6,30.28,NNE,16,2.0,2.0,68,0.00,,,0.00,Wunderground v.1.15,2013-05-03 05:00:00,
2013-05-03 00:05:00,37.2,27.2,30.28,NNE,18,2.0,3.0,67,0.00,,,0.00,Wunderground v.1.15,2013-05-03 05:05:00,
2013-05-03 00:11:00,37.1,27.5,30.28,ENE,65,2.0,2.0,68,0.00,,,0.00,Wunderground v.1.15,2013-05-03 05:11:00,
2013-05-03 00:16:00,37.1,27.2,30.28,NE,39,2.0,3.0,67,0.00,,,0.00,Wunderground v.1.15,2013-05-03 05:16:00,
2013-05-03 00:21:00,37.1,27.2,30.29,NNE,14,2.0,4.0,67,0.00,,,0.00,Wunderground v.1.15,2013-05-03 05:21:00,
2013-05-03 00:26:00,37.0,27.4,30.28,NNE,28,2.0,4.0,68,0.00,,,0.00,Wunderground v.1.15,2013-05-03 05:26:00,
2013-05-03 00:31:00,36.9,27.3,30.29,NNE,28,2.0,2.0,68,0.00,,,0.00,Wunderground v.1.15,2013-05-03 05:31:00,
2013-05-03 00:36:00,36.8,27.2,30.29,NNE,23,2.0,3.0,68,0.00,,,0.00,Wunderground v.1.15,2013-05-03 05:36:00,
2013-05-03 00:42:00,36.7,27.1,30.29,NNE,20,2.0,2.0,68,0.00,,,0.00,Wunderground v.1.15,2013-05-03 05:42:00,
2013-05-03 00:47:00,36.5,26.9,30.28,North,11,2.0,4.0,68,0.00,,,0.00,Wunderground v.1.15,2013-05-03 05:47:00,
2013-05-03 00:52:00,36.4,26.8,30.28,ENE,65,2.0,3.0,68,0.00,,,0.00,Wunderground v.1.15,2013-05-03 05:52:00,
2013-05-03 00:57:00,36.3,27.1,30.28,NNE,26,2.0,3.0,69,0.00,,,0.00,Wunderground v.1.15,2013-05-03 05:57:00,
2013-05-03 01:02:00,36.2,27.0,30.28,NNE,23,2.0,2.0,69,0.00,,,0.00,Wunderground v.1.15,2013-05-03 06:02:00,
2013-05-03 01:08:00,36.1,26.9,30.28,NNE,14,1.0,2.0,69,0.00,,,0.00,Wunderground v.1.15,2013-05-03 06:08:00,
2013-05-03 01:13:00,36.1,26.9,30.28,NNE,29,1.0,2.0,69,0.00,,,0.00,Wunderground v.1.15,2013-05-03 06:13:00,
2013-05-03 01:18:00,36.2,27.0,30.28,NNE,23,2.0,3.0,69,0.00,,,0.00,Wunderground v.1.15,2013-05-03 06:18:00,
2013-05-03 01:23:00,36.2,27.0,30.28,NNE,25,2.0,2.0,69,0.00,,,0.00,Wunderground v.1.15,2013-05-03 06:23:00,
2013-05-03 01:28:00,36.2,27.0,30.27,NNE,14,2.0,5.0,69,0.00,,,0.00,Wunderground v.1.15,2013-05-03 06:28:00,
2013-05-03 01:34:00,36.2,27.0,30.27,NNE,27,2.0,2.0,69,0.00,,,0.00,Wunderground v.1.15,2013-05-03 06:34:00,
2013-05-03 01:39:00,36.2,27.0,30.27,NNE,30,2.0,2.0,69,0.00,,,0.00,Wunderground v.1.15,2013-05-03 06:39:00,
2013-05-03 01:44:00,36.2,27.0,30.27,NE,39,2.0,2.0,69,0.00,,,0.00,Wunderground v.1.15,2013-05-03 06:44:00,
2013-05-03 01:49:00,36.1,26.9,30.27,North,359,1.0,2.0,69,0.00,,,0.00,Wunderground v.1.15,2013-05-03 06:49:00,
2013-05-03 01:54:00,36.0,27.2,30.26,NNE,19,1.0,1.0,70,0.00,,,0.00,Wunderground v.1.15,2013-05-03 06:54:00,
2013-05-03 02:00:00,35.8,27.0,30.26,NNE,33,1.0,1.0,70,0.00,,,0.00,Wunderground v.1.15,2013-05-03 07:00:00,
2013-05-03 02:05:00,35.7,27.2,30.26,NNE,19,1.0,1.0,71,0.00,,,0.00,Wunderground v.1.15,2013-05-03 07:05:00,
2013-05-03 02:10:00,35.5,27.0,30.25,NW,325,1.0,1.0,71,0.00,,,0.00,Wunderground v.1.15,2013-05-03 07:10:00,
2013-05-03 02:15:00,35.4,26.9,30.25,NNE,24,1.0,2.0,71,0.00,,,0.00,Wunderground v.1.15,2013-05-03 07:15:00,
2013-05-03 02:20:00,35.4,26.9,30.25,NNE,12,2.0,2.0,71,0.00,,,0.00,Wunderground v.1.15,2013-05-03 07:20:00,
2013-05-03 02:26:00,35.3,26.8,30.25,NE,44,2.0,2.0,71,0.00,,,0.00,Wunderground v.1.15,2013-05-03 07:26:00,
2013-05-03 02:31:00,35.2,26.7,30.25,NNE,26,1.0,3.0,71,0.00,,,0.00,Wunderground v.1.15,2013-05-03 07:31:00,
2013-05-03 02:36:00,35.2,26.7,30.25,NNE,23,2.0,3.0,71,0.00,,,0.00,Wunderground v.1.15,2013-05-03 07:36:00,
2013-05-03 02:41:00,35.1,26.6,30.25,North,8,2.0,2.0,71,0.00,,,0.00,Wunderground v.1.15,2013-05-03 07:41:00,
2013-05-03 02:46:00,35.0,26.9,30.25,North,3,2.0,2.0,72,0.00,,,0.00,Wunderground v.1.15,2013-05-03 07:46:00,
2013-05-03 02:52:00,34.9,26.8,30.25,North,353,2.0,2.0,72,0.00,,,0.00,Wunderground v.1.15,2013-05-03 07:52:00,
2013-05-03 02:57:00,34.8,26.7,30.25,NNE,32,1.0,4.0,72,0.00,,,0.00,Wunderground v.1.15,2013-05-03 07:57:00,
2013-05-03 03:02:00,34.8,26.7,30.25,NNW,346,2.0,2.0,72,0.00,,,0.00,Wunderground v.1.15,2013-05-03 08:02:00,
2013-05-03 03:07:00,34.7,26.6,30.25,NE,49,2.0,4.0,72,0.00,,,0.00,Wunderground v.1.15,2013-05-03 08:07:00,
2013-05-03 03:12:00,34.7,26.9,30.24,NNE,27,2.0,2.0,73,0.00,,,0.00,Wunderground v.1.15,2013-05-03 08:12:00,
2013-05-03 03:17:00,34.7,26.9,30.24,NE,35,2.0,4.0,73,0.00,,,0.00,Wunderground v.1.15,2013-05-03 08:17:00,
2013-05-03 03:23:00,34.6,26.5,30.24,NNE,26,2.0,4.0,72,0.00,,,0.00,Wunderground v.1.15,2013-05-03 08:23:00,
2013-05-03 03:28:00,34.5,26.4,30.23,NNE,16,2.0,4.0,72,0.00,,,0.00,Wunderground v.1.15,2013-05-03 08:28:00,
2013-05-03 03:33:00,34.5,26.7,30.23,ENE,72,2.0,3.0,73,0.00,,,0.00,Wunderground v.1.15,2013-05-03 08:33:00,
2013-05-03 03:38:00,34.4,26.3,30.23,NE,41,2.0,3.0,72,0.00,,,0.00,Wunderground v.1.15,2013-05-03 08:38:00,
2013-05-03 03:43:00,34.3,26.5,30.23,NE,51,2.0,2.0,73,0.00,,,0.00,Wunderground v.1.15,2013-05-03 08:43:00,
2013-05-03 03:48:00,34.2,26.4,30.23,NE,39,2.0,3.0,73,0.00,,,0.00,Wunderground v.1.15,2013-05-03 08:48:00,
2013-05-03 03:53:00,34.1,26.3,30.23,North,349,2.0,3.0,73,0.00,,,0.00,Wunderground v.1.15,2013-05-03 08:53:00,
2013-05-03 03:58:00,34.1,26.3,30.22,NNE,20,2.0,3.0,73,0.00,,,0.00,Wunderground v.1.15,2013-05-03 08:58:00,
2013-05-03 04:03:00,34.0,26.3,30.22,North,1,2.0,4.0,73,0.00,,,0.00,Wunderground v.1.15,2013-05-03 09:03:00,
2013-05-03 04:09:00,33.8,26.1,30.22,NNE,12,2.0,4.0,73,0.00,,,0.00,Wunderground v.1.15,2013-05-03 09:09:00,
2013-05-03 04:14:00,33.7,26.3,30.22,NNE,16,3.0,5.0,74,0.00,,,0.00,Wunderground v.1.15,2013-05-03 09:14:00,
2013-05-03 04:19:00,33.5,26.1,30.22,North,6,3.0,5.0,74,0.00,,,0.00,Wunderground v.1.15,2013-05-03 09:19:00,
2013-05-03 04:24:00,33.4,26.0,30.22,North,350,2.0,3.0,74,0.00,,,0.00,Wunderground v.1.15,2013-05-03 09:24:00,
2013-05-03 04:29:00,33.3,25.9,30.22,NNE,16,2.0,3.0,74,0.00,,,0.00,Wunderground v.1.15,2013-05-03 09:29:00,
2013-05-03 04:34:00,33.1,26.0,30.22,NNE,23,2.0,4.0,75,0.00,,,0.00,Wunderground v.1.15,2013-05-03 09:34:00,
2013-05-03 04:40:00,33.0,25.9,30.22,NNE,19,2.0,3.0,75,0.00,,,0.00,Wunderground v.1.15,2013-05-03 09:40:00,
2013-05-03 04:45:00,32.9,25.8,30.21,NNE,19,2.0,3.0,75,0.00,,,0.00,Wunderground v.1.15,2013-05-03 09:45:00,
2013-05-03 04:50:00,32.8,26.1,30.21,North,360,2.0,2.0,76,0.00,,,0.00,Wunderground v.1.15,2013-05-03 09:50:00,
2013-05-03 04:55:00,32.7,26.0,30.21,NNE,18,2.0,2.0,76,0.00,,,0.00,Wunderground v.1.15,2013-05-03 09:55:00,
2013-05-03 05:00:00,32.7,26.0,30.21,North,4,1.0,1.0,76,0.00,,,0.00,Wunderground v.1.15,2013-05-03 10:00:00,
2013-05-03 05:06:00,32.7,26.0,30.21,North,355,1.0,2.0,76,0.00,,,0.00,Wunderground v.1.15,2013-05-03 10:06:00,
2013-05-03 05:11:00,32.6,25.9,30.21,NNE,20,1.0,1.0,76,0.00,,,0.00,Wunderground v.1.15,2013-05-03 10:11:00,
2013-05-03 05:16:00,32.5,26.1,30.21,North,5,1.0,2.0,77,0.00,,,0.00,Wunderground v.1.15,2013-05-03 10:16:00,
2013-05-03 05:21:00,32.5,26.1,30.21,North,359,1.0,1.0,77,0.00,,,0.00,Wunderground v.1.15,2013-05-03 10:21:00,
2013-05-03 05:26:00,32.5,26.1,30.21,North,355,1.0,2.0,77,0.00,,,0.00,Wunderground v.1.15,2013-05-03 10:26:00,
2013-05-03 05:32:00,32.5,26.1,30.20,North,359,1.0,2.0,77,0.00,,,0.00,Wunderground v.1.15,2013-05-03 10:32:00,
2013-05-03 05:37:00,32.5,26.1,30.20,NNE,19,2.0,3.0,77,0.00,,,0.00,Wunderground v.1.15,2013-05-03 10:37:00,
2013-05-03 05:42:00,32.5,26.1,30.20,North,4,2.0,2.0,77,0.00,,,0.00,Wunderground v.1.15,2013-05-03 10:42:00,
2013-05-03 05:47:00,32.5,26.1,30.20,North,11,2.0,3.0,77,0.00,,,0.00,Wunderground v.1.15,2013-05-03 10:47:00,
2013-05-03 05:52:00,32.5,26.1,30.20,North,360,2.0,2.0,77,0.00,,,0.00,Wunderground v.1.15,2013-05-03 10:52:00,
2013-05-03 05:58:00,32.5,26.1,30.19,NNE,12,2.0,5.0,77,0.00,,,0.00,Wunderground v.1.15,2013-05-03 10:58:00,
2013-05-03 06:03:00,32.4,26.0,30.19,North,349,2.0,2.0,77,0.00,,,0.00,Wunderground v.1.15,2013-05-03 11:03:00,
2013-05-03 06:08:00,32.4,26.3,30.19,North,352,2.0,3.0,78,0.00,,,0.00,Wunderground v.1.15,2013-05-03 11:08:00,
2013-05-03 06:13:00,32.4,26.3,30.19,NE,43,2.0,2.0,78,0.00,,,0.00,Wunderground v.1.15,2013-05-03 11:13:00,
2013-05-03 06:18:00,32.4,26.3,30.19,NNW,342,2.0,2.0,78,0.00,,,0.00,Wunderground v.1.15,2013-05-03 11:18:00,
2013-05-03 06:24:00,32.4,26.3,30.19,NNE,13,2.0,3.0,78,0.00,,,0.00,Wunderground v.1.15,2013-05-03 11:24:00,
2013-05-03 06:29:00,32.4,26.3,30.19,NE,35,2.0,3.0,78,0.00,,,0.00,Wunderground v.1.15,2013-05-03 11:29:00,
2013-05-03 06:34:00,32.5,26.4,30.19,NE,44,3.0,5.0,78,0.00,,,0.00,Wunderground v.1.15,2013-05-03 11:34:00,
2013-05-03 06:39:00,32.6,26.5,30.18,NNE,22,3.0,6.0,78,0.00,,,0.00,Wunderground v.1.15,2013-05-03 11:39:00,
2013-05-03 06:44:00,32.6,26.5,30.18,NNE,12,3.0,5.0,78,0.00,,,0.00,Wunderground v.1.15,2013-05-03 11:44:00,
2013-05-03 06:50:00,32.6,26.5,30.18,NNE,27,3.0,8.0,78,0.00,,,0.00,Wunderground v.1.15,2013-05-03 11:50:00,
2013-05-03 06:55:00,32.6,26.5,30.18,NNE,33,4.0,8.0,78,0.00,,,0.00,Wunderground v.1.15,2013-05-03 11:55:00,
2013-05-03 07:00:00,32.6,26.5,30.19,NNE,15,4.0,4.0,78,0.00,,,0.00,Wunderground v.1.15,2013-05-03 12:00:00,
2013-05-03 07:05:00,32.7,26.6,30.19,NE,44,3.0,4.0,78,0.00,,,0.00,Wunderground v.1.15,2013-05-03 12:05:00,
2013-05-03 07:10:00,32.7,26.6,30.19,NE,41,3.0,3.0,78,0.00,,,0.00,Wunderground v.1.15,2013-05-03 12:10:00,
2013-05-03 07:15:00,32.7,26.6,30.19,ENE,65,3.0,6.0,78,0.00,,,0.00,Wunderground v.1.15,2013-05-03 12:15:00,
2013-05-03 07:20:00,32.7,26.9,30.18,ENE,61,2.0,2.0,79,0.00,,,0.00,Wunderground v.1.15,2013-05-03 12:20:00,
2013-05-03 07:25:00,32.8,27.0,30.18,North,11,3.0,3.0,79,0.00,,,0.00,Wunderground v.1.15,2013-05-03 12:25:00,
2013-05-03 07:30:00,32.7,26.9,30.19,NNE,16,3.0,3.0,79,0.00,,,0.00,Wunderground v.1.15,2013-05-03 12:30:00,
2013-05-03 07:35:00,32.7,26.9,30.19,NE,51,3.0,5.0,79,0.00,,,0.00,Wunderground v.1.15,2013-05-03 12:35:00,
2013-05-03 07:41:00,32.6,27.1,30.18,NNE,15,3.0,5.0,80,0.00,,,0.00,Wunderground v.1.15,2013-05-03 12:41:00,
2013-05-03 07:46:00,32.5,27.6,30.18,NNE,20,3.0,5.0,82,0.00,,,0.00,Wunderground v.1.15,2013-05-03 12:46:00,
2013-05-03 07:51:00,32.5,27.9,30.19,NNE,23,3.0,6.0,83,0.00,,,0.00,Wunderground v.1.15,2013-05-03 12:51:00,
2013-05-03 07:56:00,32.3,28.0,30.19,NNE,26,3.0,6.0,84,0.00,,,0.00,Wunderground v.1.15,2013-05-03 12:56:00,
2013-05-03 08:01:00,32.0,28.3,30.19,North,11,4.0,4.0,86,0.00,,,0.00,Wunderground v.1.15,2013-05-03 13:01:00,
2013-05-03 08:07:00,31.7,28.6,30.18,NNE,28,3.0,4.0,88,0.00,,,0.00,Wunderground v.1.15,2013-05-03 13:07:00,
2013-05-03 08:12:00,31.4,28.5,30.19,NE,41,3.0,5.0,89,0.00,,,0.00,Wunderground v.1.15,2013-05-03 13:12:00,
2013-05-03 08:17:00,31.2,28.6,30.18,NNE,26,3.0,5.0,90,0.00,,,0.00,Wunderground v.1.15,2013-05-03 13:17:00,
2013-05-03 08:22:00,31.1,28.8,30.18,NNW,331,3.0,3.0,91,0.00,,,0.00,Wunderground v.1.15,2013-05-03 13:22:00,
2013-05-03 08:27:00,31.0,28.7,30.18,NE,34,3.0,3.0,91,0.00,,,0.00,Wunderground v.1.15,2013-05-03 13:27:00,
2013-05-03 08:32:00,31.0,28.9,30.18,NNE,25,2.0,3.0,92,0.00,,,0.00,Wunderground v.1.15,2013-05-03 13:32:00,
2013-05-03 08:38:00,31.0,28.9,30.17,East,84,2.0,3.0,92,0.00,,,0.00,Wunderground v.1.15,2013-05-03 13:38:00,
2013-05-03 08:43:00,31.0,28.9,30.17,NE,35,2.0,3.0,92,0.00,,,0.00,Wunderground v.1.15,2013-05-03 13:43:00,
2013-05-03 08:48:00,31.0,28.9,30.17,North,9,3.0,5.0,92,0.00,,,0.00,Wunderground v.1.15,2013-05-03 13:48:00,
2013-05-03 08:53:00,31.0,28.9,30.17,NNE,28,3.0,3.0,92,0.00,,,0.00,Wunderground v.1.15,2013-05-03 13:53:00,
2013-05-03 08:58:00,31.0,28.9,30.17,NNE,21,3.0,3.0,92,0.00,,,0.00,Wunderground v.1.15,2013-05-03 13:58:00,
2013-05-03 09:04:00,31.0,29.2,30.16,ENE,60,3.0,5.0,93,0.00,,,0.00,Wunderground v.1.15,2013-05-03 14:04:00,
2013-05-03 09:09:00,31.0,29.2,30.16,NNE,32,2.0,5.0,93,0.00,,,0.00,Wunderground v.1.15,2013-05-03 14:09:00,
2013-05-03 09:14:00,31.1,29.3,30.16,North,11,2.0,3.0,93,0.00,,,0.00,Wunderground v.1.15,2013-05-03 14:14:00,
2013-05-03 09:19:00,31.1,29.3,30.16,NNE,26,2.0,3.0,93,0.00,,,0.00,Wunderground v.1.15,2013-05-03 14:19:00,
2013-05-03 09:24:00,31.1,29.3,30.16,North,4,3.0,4.0,93,0.00,,,0.00,Wunderground v.1.15,2013-05-03 14:24:00,
2013-05-03 09:30:00,31.2,29.4,30.16,NE,49,3.0,4.0,93,0.00,,,0.00,Wunderground v.1.15,2013-05-03 14:30:00,
2013-05-03 09:35:00,31.2,29.4,30.16,NE,48,3.0,5.0,93,0.00,,,0.00,Wunderground v.1.15,2013-05-03 14:35:00,
2013-05-03 09:40:00,31.3,29.5,30.16,NNE,29,2.0,3.0,93,0.00,,,0.00,Wunderground v.1.15,2013-05-03 14:40:00,
2013-05-03 09:45:00,31.3,29.5,30.16,ENE,59,2.0,3.0,93,0.00,,,0.00,Wunderground v.1.15,2013-05-03 14:45:00,
2013-05-03 09:50:00,31.4,29.6,30.16,NNE,18,2.0,2.0,93,0.00,,,0.00,Wunderground v.1.15,2013-05-03 14:50:00,
2013-05-03 09:56:00,31.3,29.5,30.16,NE,48,2.0,4.0,93,0.00,,,0.00,Wunderground v.1.15,2013-05-03 14:56:00,
2013-05-03 10:01:00,31.4,29.6,30.16,NNE,27,2.0,4.0,93,0.00,,,0.00,Wunderground v.1.15,2013-05-03 15:01:00,
2013-05-03 10:06:00,31.4,29.6,30.16,NNE,16,2.0,4.0,93,0.00,,,0.00,Wunderground v.1.15,2013-05-03 15:06:00,
2013-05-03 10:11:00,31.5,29.7,30.16,North,360,2.0,2.0,93,0.00,,,0.00,Wunderground v.1.15,2013-05-03 15:11:00,
2013-05-03 10:16:00,31.6,29.8,30.16,NNE,26,1.0,4.0,93,0.00,,,0.00,Wunderground v.1.15,2013-05-03 15:16:00,
2013-05-03 10:22:00,31.6,29.8,30.16,NNE,23,2.0,2.0,93,0.00,,,0.00,Wunderground v.1.15,2013-05-03 15:22:00,
2013-05-03 10:27:00,31.7,29.9,30.15,NNE,12,1.0,2.0,93,0.00,,,0.00,Wunderground v.1.15,2013-05-03 15:27:00,
2013-05-03 10:32:00,31.8,30.0,30.15,NNE,23,1.0,2.0,93,0.00,,,0.00,Wunderground v.1.15,2013-05-03 15:32:00,
2013-05-03 10:37:00,31.8,30.0,30.15,North,356,1.0,3.0,93,0.00,,,0.00,Wunderground v.1.15,2013-05-03 15:37:00,
2013-05-03 10:42:00,31.8,30.0,30.15,NNE,32,2.0,5.0,93,0.00,,,0.00,Wunderground v.1.15,2013-05-03 15:42:00,
2013-05-03 10:48:00,31.8,30.0,30.15,North,359,2.0,5.0,93,0.00,,,0.00,Wunderground v.1.15,2013-05-03 15:48:00,
2013-05-03 10:53:00,32.0,30.2,30.15,North,8,2.0,4.0,93,0.00,,,0.00,Wunderground v.1.15,2013-05-03 15:53:00,
2013-05-03 10:58:00,32.1,30.3,30.15,NE,43,2.0,4.0,93,0.00,,,0.00,Wunderground v.1.15,2013-05-03 15:58:00,
2013-05-03 11:03:00,32.3,30.5,30.14,NNE,15,2.0,3.0,93,0.00,,,0.00,Wunderground v.1.15,2013-05-03 16:03:00,
2013-05-03 11:08:00,32.3,30.5,30.14,ENE,77,2.0,4.0,93,0.00,,,0.00,Wunderground v.1.15,2013-05-03 16:08:00,
2013-05-03 11:13:00,32.4,30.6,30.14,NNE,20,3.0,3.0,93,0.00,,,0.00,Wunderground v.1.15,2013-05-03 16:13:00,
2013-05-03 11:18:00,32.4,30.6,30.14,North,5,3.0,3.0,93,0.00,,,0.00,Wunderground v.1.15,2013-05-03 16:18:00,
2013-05-03 11:23:00,32.5,30.7,30.13,NNE,25,3.0,3.0,93,0.00,,,0.00,Wunderground v.1.15,2013-05-03 16:23:00,
2013-05-03 11:28:00,32.6,30.8,30.13,NNE,32,2.0,3.0,93,0.00,,,0.00,Wunderground v.1.15,2013-05-03 16:28:00,
2013-05-03 11:33:00,32.6,30.8,30.13,North,8,2.0,5.0,93,0.00,,,0.00,Wunderground v.1.15,2013-05-03 16:33:00,
2013-05-03 11:39:00,32.7,30.9,30.13,NNE,18,3.0,5.0,93,0.00,,,0.00,Wunderground v.1.15,2013-05-03 16:39:00,
2013-05-03 11:44:00,32.8,31.0,30.13,NNE,13,3.0,8.0,93,0.00,,,0.00,Wunderground v.1.15,2013-05-03 16:44:00,
2013-05-03 11:49:00,33.1,31.3,30.12,ENE,60,3.0,8.0,93,0.00,,,0.00,Wunderground v.1.15,2013-05-03 16:49:00,
2013-05-03 11:54:00,33.2,31.4,30.13,NNE,32,3.0,4.0,93,0.00,,,0.00,Wunderground v.1.15,2013-05-03 16:54:00,
2013-05-03 11:59:00,33.3,31.5,30.12,ENE,67,3.0,5.0,93,0.00,,,0.00,Wunderground v.1.15,2013-05-03 16:59:00,
2013-05-03 12:04:00,33.3,31.5,30.12,NNE,18,3.0,5.0,93,0.00,,,0.00,Wunderground v.1.15,2013-05-03 17:04:00,
2013-05-03 12:10:00,33.4,31.6,30.11,North,360,3.0,3.0,93,0.00,,,0.00,Wunderground v.1.15,2013-05-03 17:10:00,
2013-05-03 12:15:00,33.2,31.4,30.11,NE,37,4.0,7.0,93,0.00,,,0.00,Wunderground v.1.15,2013-05-03 17:15:00,
2013-05-03 12:20:00,33.2,31.4,30.10,NNE,26,4.0,4.0,93,0.00,,,0.00,Wunderground v.1.15,2013-05-03 17:20:00,
2013-05-03 12:25:00,33.3,31.5,30.10,NE,39,4.0,6.0,93,0.00,,,0.00,Wunderground v.1.15,2013-05-03 17:25:00,
2013-05-03 12:30:00,33.3,31.5,30.10,NNE,15,3.0,6.0,93,0.00,,,0.00,Wunderground v.1.15,2013-05-03 17:30:00,
2013-05-03 12:35:00,33.4,31.6,30.10,NNW,345,3.0,7.0,93,0.00,,,0.00,Wunderground v.1.15,2013-05-03 17:35:00,
2013-05-03 12:40:00,33.4,31.6,30.10,NNE,14,3.0,4.0,93,0.00,,,0.00,Wunderground v.1.15,2013-05-03 17:40:00,
2013-05-03 12:46:00,33.4,31.6,30.10,NNE,21,4.0,6.0,93,0.00,,,0.00,Wunderground v.1.15,2013-05-03 17:46:00,
2013-05-03 12:51:00,33.6,31.8,30.10,NNE,16,4.0,4.0,93,0.00,,,0.00,Wunderground v.1.15,2013-05-03 17:51:00,
2013-05-03 12:56:00,33.7,31.9,30.09,ENE,59,4.0,6.0,93,0.00,,,0.00,Wunderground v.1.15,2013-05-03 17:56:00,
2013-05-03 13:01:00,33.9,32.1,30.09,ENE,68,4.0,5.0,93,0.00,,,0.00,Wunderground v.1.15,2013-05-03 18:01:00,
2013-05-03 13:06:00,34.1,32.3,30.08,NNE,24,4.0,6.0,93,0.00,,,0.00,Wunderground v.1.15,2013-05-03 18:06:00,
2013-05-03 13:11:00,34.1,32.0,30.08,ENE,76,4.0,7.0,92,0.00,,,0.00,Wunderground v.1.15,2013-05-03 18:11:00,
2013-05-03 13:16:00,34.2,32.1,30.07,NE,48,5.0,7.0,92,0.00,,,0.00,Wunderground v.1.15,2013-05-03 18:16:00,
2013-05-03 13:21:00,34.3,32.2,30.08,NNE,18,5.0,6.0,92,0.00,,,0.00,Wunderground v.1.15,2013-05-03 18:21:00,
2013-05-03 13:27:00,34.5,32.4,30.08,ENE,73,4.0,6.0,92,0.00,,,0.00,Wunderground v.1.15,2013-05-03 18:27:00,
2013-05-03 13:32:00,34.6,32.5,30.07,NE,46,4.0,5.0,92,0.00,,,0.00,Wunderground v.1.15,2013-05-03 18:32:00,
2013-05-03 13:37:00,34.7,32.6,30.08,NE,53,5.0,6.0,92,0.00,,,0.00,Wunderground v.1.15,2013-05-03 18:37:00,
2013-05-03 13:42:00,34.8,32.7,30.08,NE,42,4.0,4.0,92,0.00,,,0.00,Wunderground v.1.15,2013-05-03 18:42:00,
2013-05-03 13:47:00,34.8,32.7,30.07,ENE,58,4.0,7.0,92,0.00,,,0.00,Wunderground v.1.15,2013-05-03 18:47:00,
2013-05-03 13:52:00,34.8,32.7,30.07,NNE,14,4.0,8.0,92,0.00,,,0.00,Wunderground v.1.15,2013-05-03 18:52:00,
2013-05-03 13:58:00,34.8,32.7,30.07,North,356,4.0,8.0,92,0.00,,,0.00,Wunderground v.1.15,2013-05-03 18:58:00,
2013-05-03 14:03:00,34.8,32.7,30.07,NE,53,4.0,6.0,92,0.00,,,0.00,Wunderground v.1.15,2013-05-03 19:03:00,
2013-05-03 14:08:00,34.8,32.4,30.07,ENE,76,4.0,6.0,91,0.00,,,0.00,Wunderground v.1.15,2013-05-03 19:08:00,
2013-05-03 14:13:00,34.8,32.7,30.07,North,8,4.0,4.0,92,0.00,,,0.00,Wunderground v.1.15,2013-05-03 19:13:00,
2013-05-03 14:18:00,34.8,32.4,30.07,NNE,16,3.0,5.0,91,0.00,,,0.00,Wunderground v.1.15,2013-05-03 19:18:00,
2013-05-03 14:24:00,34.8,32.7,30.07,NE,44,4.0,5.0,92,0.00,,,0.00,Wunderground v.1.15,2013-05-03 19:24:00,
2013-05-03 14:29:00,34.9,32.8,30.07,NE,41,4.0,5.0,92,0.00,,,0.01,Wunderground v.1.15,2013-05-03 19:29:00,
2013-05-03 14:34:00,34.9,32.8,30.07,ENE,65,4.0,5.0,92,0.00,,,0.01,Wunderground v.1.15,2013-05-03 19:34:00,
2013-05-03 14:39:00,35.0,32.9,30.07,ENE,75,4.0,6.0,92,0.07,,,0.02,Wunderground v.1.15,2013-05-03 19:39:00,
2013-05-03 14:44:00,35.0,32.9,30.07,NNE,19,4.0,8.0,92,0.07,,,0.02,Wunderground v.1.15,2013-05-03 19:44:00,
2013-05-03 14:50:00,34.9,32.8,30.07,NNE,33,4.0,6.0,92,0.06,,,0.03,Wunderground v.1.15,2013-05-03 19:50:00,
2013-05-03 14:55:00,34.9,32.8,30.07,ENE,58,5.0,6.0,92,0.06,,,0.03,Wunderground v.1.15,2013-05-03 19:55:00,
2013-05-03 15:00:00,34.9,32.8,30.06,ENE,60,4.0,4.0,92,0.05,,,0.04,Wunderground v.1.15,2013-05-03 20:00:00,
2013-05-03 15:05:00,35.1,33.3,30.06,North,11,4.0,4.0,93,0.05,,,0.04,Wunderground v.1.15,2013-05-03 20:05:00,
2013-05-03 15:10:00,35.1,33.0,30.06,NNE,20,4.0,4.0,92,0.05,,,0.05,Wunderground v.1.15,2013-05-03 20:10:00,
2013-05-03 15:16:00,35.3,33.5,30.06,NNE,23,4.0,7.0,93,0.05,,,0.05,Wunderground v.1.15,2013-05-03 20:16:00,
2013-05-03 15:21:00,35.2,33.1,30.06,NE,41,4.0,5.0,92,0.06,,,0.06,Wunderground v.1.15,2013-05-03 20:21:00,
2013-05-03 15:26:00,35.1,33.0,30.06,ENE,66,5.0,9.0,92,0.06,,,0.06,Wunderground v.1.15,2013-05-03 20:26:00,
2013-05-03 15:31:00,35.1,33.0,30.06,East,88,5.0,6.0,92,0.05,,,0.06,Wunderground v.1.15,2013-05-03 20:31:00,
2013-05-03 15:36:00,35.1,33.0,30.06,NNE,33,5.0,6.0,92,0.04,,,0.07,Wunderground v.1.15,2013-05-03 20:36:00,
2013-05-03 15:42:00,35.2,33.1,30.05,ENE,62,4.0,4.0,92,0.04,,,0.07,Wunderground v.1.15,2013-05-03 20:42:00,
2013-05-03 15:47:00,35.2,33.1,30.06,ENE,71,4.0,6.0,92,0.04,,,0.07,Wunderground v.1.15,2013-05-03 20:47:00,
2013-05-03 15:52:00,35.2,33.1,30.06,NNE,21,4.0,4.0,92,0.00,,,0.07,Wunderground v.1.15,2013-05-03 20:52:00,
2013-05-03 15:57:00,35.2,32.8,30.05,NE,35,5.0,7.0,91,0.00,,,0.08,Wunderground v.1.15,2013-05-03 20:57:00,
2013-05-03 16:02:00,35.3,32.9,30.05,NNE,19,5.0,6.0,91,0.00,,,0.08,Wunderground v.1.15,2013-05-03 21:02:00,
2013-05-03 16:08:00,35.3,32.9,30.05,NE,55,5.0,6.0,91,0.00,,,0.08,Wunderground v.1.15,2013-05-03 21:08:00,
2013-05-03 16:13:00,35.3,32.9,30.04,NE,37,5.0,9.0,91,0.00,,,0.08,Wunderground v.1.15,2013-05-03 21:13:00,
2013-05-03 16:18:00,35.2,32.8,30.04,NNE,23,5.0,9.0,91,0.00,,,0.09,Wunderground v.1.15,2013-05-03 21:18:00,
2013-05-03 16:23:00,35.2,33.1,30.04,NNE,19,5.0,5.0,92,0.00,,,0.09,Wunderground v.1.15,2013-05-03 21:23:00,
2013-05-03 16:28:00,35.4,33.3,30.04,ENE,58,4.0,8.0,92,0.00,,,0.09,Wunderground v.1.15,2013-05-03 21:28:00,
2013-05-03 16:34:00,35.4,33.3,30.04,NNE,32,4.0,8.0,92,0.00,,,0.09,Wunderground v.1.15,2013-05-03 21:34:00,
2013-05-03 16:39:00,35.5,33.4,30.04,NE,51,4.0,8.0,92,0.00,,,0.10,Wunderground v.1.15,2013-05-03 21:39:00,
2013-05-03 16:44:00,35.3,32.9,30.04,North,353,4.0,7.0,91,0.00,,,0.10,Wunderground v.1.15,2013-05-03 21:44:00,
2013-05-03 16:49:00,35.3,33.2,30.04,NE,51,4.0,7.0,92,0.00,,,0.10,Wunderground v.1.15,2013-05-03 21:49:00,
2013-05-03 16:54:00,35.3,32.9,30.04,NE,35,4.0,8.0,91,0.00,,,0.10,Wunderground v.1.15,2013-05-03 21:54:00,
2013-05-03 17:00:00,35.3,32.9,30.04,East,82,5.0,7.0,91,0.00,,,0.10,Wunderground v.1.15,2013-05-03 22:00:00,
2013-05-03 17:05:00,35.2,32.8,30.04,ENE,75,5.0,7.0,91,0.00,,,0.11,Wunderground v.1.15,2013-05-03 22:05:00,
2013-05-03 17:10:00,35.0,32.4,30.04,NNE,33,6.0,6.0,90,0.00,,,0.11,Wunderground v.1.15,2013-05-03 22:10:00,
2013-05-03 17:15:00,34.8,31.9,30.04,ENE,68,6.0,9.0,89,0.00,,,0.11,Wunderground v.1.15,2013-05-03 22:15:00,
2013-05-03 17:20:00,34.6,31.7,30.05,NE,56,6.0,7.0,89,0.00,,,0.11,Wunderground v.1.15,2013-05-03 22:20:00,
2013-05-03 17:25:00,34.6,31.7,30.05,ENE,57,5.0,7.0,89,0.00,,,0.11,Wunderground v.1.15,2013-05-03 22:25:00,
2013-05-03 17:30:00,34.7,31.8,30.05,NNE,14,5.0,5.0,89,0.00,,,0.11,Wunderground v.1.15,2013-05-03 22:30:00,
2013-05-03 17:35:00,34.7,32.1,30.05,North,1,4.0,5.0,90,0.00,,,0.11,Wunderground v.1.15,2013-05-03 22:35:00,
2013-05-03 17:40:00,34.7,31.8,30.05,NE,53,3.0,4.0,89,0.00,,,0.11,Wunderground v.1.15,2013-05-03 22:40:00,
2013-05-03 17:45:00,34.8,32.2,30.06,ENE,68,3.0,4.0,90,0.00,,,0.11,Wunderground v.1.15,2013-05-03 22:45:00,
2013-05-03 17:51:00,34.8,32.2,30.06,NE,39,3.0,5.0,90,0.00,,,0.11,Wunderground v.1.15,2013-05-03 22:51:00,
2013-05-03 17:56:00,34.8,32.2,30.06,ENE,65,3.0,5.0,90,0.00,,,0.11,Wunderground v.1.15,2013-05-03 22:56:00,
2013-05-03 18:01:00,34.7,32.1,30.05,ENE,63,4.0,6.0,90,0.00,,,0.12,Wunderground v.1.15,2013-05-03 23:01:00,
2013-05-03 18:06:00,34.5,31.9,30.05,ENE,72,5.0,7.0,90,0.00,,,0.12,Wunderground v.1.15,2013-05-03 23:06:00,
2013-05-03 18:11:00,34.3,31.7,30.05,ENE,66,5.0,6.0,90,0.00,,,0.12,Wunderground v.1.15,2013-05-03 23:11:00,
2013-05-03 18:17:00,34.1,31.5,30.05,NE,43,5.0,6.0,90,0.05,,,0.13,Wunderground v.1.15,2013-05-03 23:17:00,
2013-05-03 18:22:00,34.0,31.6,30.05,NE,54,5.0,6.0,91,0.05,,,0.13,Wunderground v.1.15,2013-05-03 23:22:00,
2013-05-03 18:27:00,33.9,31.6,30.05,North,355,5.0,8.0,91,0.06,,,0.14,Wunderground v.1.15,2013-05-03 23:27:00,
2013-05-03 18:32:00,33.8,31.5,30.05,NE,50,5.0,7.0,91,0.06,,,0.14,Wunderground v.1.15,2013-05-03 23:32:00,
2013-05-03 18:37:00,33.7,31.4,30.06,NNE,29,5.0,7.0,91,0.04,,,0.14,Wunderground v.1.15,2013-05-03 23:37:00,
2013-05-03 18:42:00,33.6,31.3,30.06,ENE,60,4.0,5.0,91,0.00,,,0.14,Wunderground v.1.15,2013-05-03 23:42:00,
2013-05-03 18:48:00,33.6,31.5,30.06,NE,55,4.0,6.0,92,0.00,,,0.14,Wunderground v.1.15,2013-05-03 23:48:00,
2013-05-03 18:53:00,33.6,31.5,30.06,NNE,21,3.0,4.0,92,0.00,,,0.14,Wunderground v.1.15,2013-05-03 23:53:00,
2013-05-03 18:58:00,33.6,31.5,30.05,NNE,12,3.0,8.0,92,0.00,,,0.14,Wunderground v.1.15,2013-05-03 23:58:00,
2013-05-03 19:03:00,33.6,31.8,30.05,North,11,3.0,6.0,93,0.00,,,0.15,Wunderground v.1.15,2013-05-04 00:03:00,
2013-05-03 19:08:00,33.6,31.8,30.05,NE,53,4.0,6.0,93,0.00,,,0.15,Wunderground v.1.15,2013-05-04 00:08:00,
2013-05-03 19:14:00,33.5,31.7,30.04,NNE,13,3.0,4.0,93,0.00,,,0.15,Wunderground v.1.15,2013-05-04 00:14:00,
2013-05-03 19:19:00,33.5,31.7,30.04,North,359,4.0,8.0,93,0.00,,,0.15,Wunderground v.1.15,2013-05-04 00:19:00,
2013-05-03 19:24:00,33.5,31.7,30.04,NE,43,4.0,5.0,93,0.00,,,0.15,Wunderground v.1.15,2013-05-04 00:24:00,
2013-05-03 19:29:00,33.5,31.7,30.04,NE,56,4.0,4.0,93,0.00,,,0.15,Wunderground v.1.15,2013-05-04 00:29:00,
2013-05-03 19:35:00,33.5,31.7,30.04,NE,51,4.0,5.0,93,0.00,,,0.15,Wunderground v.1.15,2013-05-04 00:35:00,
2013-05-03 19:40:00,33.5,31.7,30.04,NE,41,4.0,4.0,93,0.00,,,0.15,Wunderground v.1.15,2013-05-04 00:40:00,
2013-05-03 19:45:00,33.5,31.7,30.04,North,1,4.0,4.0,93,0.00,,,0.16,Wunderground v.1.15,2013-05-04 00:45:00,
2013-05-03 19:50:00,33.5,31.7,30.04,NNW,347,4.0,8.0,93,0.00,,,0.16,Wunderground v.1.15,2013-05-04 00:50:00,
2013-05-03 19:55:00,33.5,31.4,30.04,ENE,75,5.0,8.0,92,0.00,,,0.16,Wunderground v.1.15,2013-05-04 00:55:00,
2013-05-03 20:00:00,33.4,31.3,30.04,NNE,33,4.0,4.0,92,0.00,,,0.16,Wunderground v.1.15,2013-05-04 01:00:00,
2013-05-03 20:06:00,33.4,31.3,30.04,NNE,14,4.0,6.0,92,0.00,,,0.16,Wunderground v.1.15,2013-05-04 01:06:00,
2013-05-03 20:11:00,33.4,31.3,30.04,ENE,68,4.0,4.0,92,0.00,,,0.16,Wunderground v.1.15,2013-05-04 01:11:00,
2013-05-03 20:16:00,33.4,31.3,30.04,ENE,73,4.0,6.0,92,0.00,,,0.16,Wunderground v.1.15,2013-05-04 01:16:00,
2013-05-03 20:21:00,33.3,31.2,30.04,ENE,57,4.0,4.0,92,0.00,,,0.16,Wunderground v.1.15,2013-05-04 01:21:00,
2013-05-03 20:26:00,33.3,31.5,30.04,ENE,75,4.0,4.0,93,0.00,,,0.16,Wunderground v.1.15,2013-05-04 01:26:00,
2013-05-03 20:32:00,33.4,31.6,30.03,NE,51,4.0,4.0,93,0.00,,,0.16,Wunderground v.1.15,2013-05-04 01:32:00,
2013-05-03 20:37:00,33.4,31.6,30.03,NE,53,3.0,4.0,93,0.00,,,0.16,Wunderground v.1.15,2013-05-04 01:37:00,
2013-05-03 20:42:00,33.4,31.6,30.03,ENE,58,3.0,4.0,93,0.00,,,0.16,Wunderground v.1.15,2013-05-04 01:42:00,
2013-05-03 20:47:00,33.3,31.5,30.03,NE,55,3.0,5.0,93,0.00,,,0.16,Wunderground v.1.15,2013-05-04 01:47:00,
2013-05-03 20:52:00,33.3,31.5,30.04,NNE,14,3.0,4.0,93,0.00,,,0.16,Wunderground v.1.15,2013-05-04 01:52:00,
2013-05-03 20:58:00,33.3,31.5,30.04,ENE,68,3.0,4.0,93,0.00,,,0.16,Wunderground v.1.15,2013-05-04 01:58:00,
2013-05-03 21:03:00,33.2,31.4,30.03,NE,53,4.0,5.0,93,0.00,,,0.17,Wunderground v.1.15,2013-05-04 02:03:00,
2013-05-03 21:08:00,33.2,31.4,30.03,NE,49,5.0,5.0,93,0.00,,,0.17,Wunderground v.1.15,2013-05-04 02:08:00,
2013-05-03 21:13:00,33.1,31.3,30.03,ENE,68,4.0,5.0,93,0.00,,,0.17,Wunderground v.1.15,2013-05-04 02:13:00,
2013-05-03 21:18:00,33.1,31.3,30.04,NE,49,4.0,5.0,93,0.00,,,0.17,Wunderground v.1.15,2013-05-04 02:18:00,
2013-05-03 21:24:00,33.1,31.3,30.05,ENE,60,3.0,4.0,93,0.00,,,0.17,Wunderground v.1.15,2013-05-04 02:24:00,
2013-05-03 21:29:00,33.1,31.3,30.05,ENE,60,2.0,4.0,93,0.00,,,0.17,Wunderground v.1.15,2013-05-04 02:29:00,
2013-05-03 21:34:00,33.1,31.3,30.05,ENE,78,2.0,4.0,93,0.00,,,0.17,Wunderground v.1.15,2013-05-04 02:34:00,
2013-05-03 21:39:00,33.1,31.3,30.05,ENE,75,2.0,4.0,93,0.00,,,0.17,Wunderground v.1.15,2013-05-04 02:39:00,
2013-05-03 21:44:00,33.0,31.2,30.05,ENE,72,2.0,3.0,93,0.00,,,0.17,Wunderground v.1.15,2013-05-04 02:44:00,
2013-05-03 21:50:00,33.0,31.2,30.06,ENE,63,3.0,6.0,93,0.00,,,0.17,Wunderground v.1.15,2013-05-04 02:50:00,
2013-05-03 21:55:00,33.0,31.2,30.06,ENE,59,3.0,6.0,93,0.00,,,0.17,Wunderground v.1.15,2013-05-04 02:55:00,
2013-05-03 22:00:00,33.0,31.2,30.06,ENE,60,3.0,3.0,93,0.00,,,0.17,Wunderground v.1.15,2013-05-04 03:00:00,
2013-05-03 22:05:00,33.0,31.2,30.06,NE,36,3.0,5.0,93,0.00,,,0.17,Wunderground v.1.15,2013-05-04 03:05:00,
2013-05-03 22:10:00,33.0,31.2,30.06,NNE,23,3.0,3.0,93,0.00,,,0.17,Wunderground v.1.15,2013-05-04 03:10:00,
2013-05-03 22:16:00,32.9,31.1,30.06,NNE,32,3.0,3.0,93,0.00,,,0.17,Wunderground v.1.15,2013-05-04 03:16:00,
2013-05-03 22:21:00,32.9,31.1,30.06,ENE,65,3.0,5.0,93,0.00,,,0.17,Wunderground v.1.15,2013-05-04 03:21:00,
2013-05-03 22:26:00,32.9,31.1,30.06,ENE,76,3.0,6.0,93,0.00,,,0.17,Wunderground v.1.15,2013-05-04 03:26:00,
2013-05-03 22:31:00,32.9,31.1,30.06,ENE,75,3.0,3.0,93,0.00,,,0.17,Wunderground v.1.15,2013-05-04 03:31:00,
2013-05-03 22:36:00,32.8,31.0,30.05,NE,53,2.0,3.0,93,0.00,,,0.17,Wunderground v.1.15,2013-05-04 03:36:00,
2013-05-03 22:41:00,32.8,31.0,30.05,NNE,23,2.0,4.0,93,0.00,,,0.17,Wunderground v.1.15,2013-05-04 03:41:00,
2013-05-03 22:46:00,32.8,31.0,30.05,NNE,12,2.0,4.0,93,0.00,,,0.17,Wunderground v.1.15,2013-05-04 03:46:00,
2013-05-03 22:51:00,32.9,31.1,30.05,NNE,25,2.0,3.0,93,0.00,,,0.17,Wunderground v.1.15,2013-05-04 03:51:00,
2013-05-03 22:57:00,32.8,31.0,30.05,ENE,57,3.0,4.0,93,0.00,,,0.17,Wunderground v.1.15,2013-05-04 03:57:00,
2013-05-03 23:01:00,32.8,31.0,30.05,NE,39,3.0,3.0,93,0.00,,,0.17,Wunderground v.1.15,2013-05-04 04:01:00,
2013-05-03 23:02:00,32.8,31.0,30.05,NNE,33,3.0,3.0,93,0.00,,,0.17,Wunderground v.1.15,2013-05-04 04:02:00,
2013-05-03 23:04:00,32.8,31.0,30.05,East,85,3.0,3.0,93,0.00,,,0.17,Wunderground v.1.15,2013-05-04 04:04:00,
2013-05-03 23:05:00,32.8,31.0,30.05,ENE,70,3.0,3.0,93,0.00,,,0.17,Wunderground v.1.15,2013-05-04 04:05:00,
2013-05-03 23:08:00,32.8,31.0,30.05,NE,46,3.0,3.0,93,0.00,,,0.17,Wunderground v.1.15,2013-05-04 04:08:00,
2013-05-03 23:13:00,32.8,31.0,30.05,NE,48,2.0,3.0,93,0.00,,,0.17,Wunderground v.1.15,2013-05-04 04:13:00,
2013-05-03 23:18:00,32.7,30.9,30.04,North,351,3.0,3.0,93,0.00,,,0.17,Wunderground v.1.15,2013-05-04 04:18:00,
2013-05-03 23:23:00,32.7,30.9,30.04,NE,40,3.0,5.0,93,0.00,,,0.17,Wunderground v.1.15,2013-05-04 04:23:00,
2013-05-03 23:28:00,32.7,30.9,30.03,ENE,59,4.0,5.0,93,0.00,,,0.17,Wunderground v.1.15,2013-05-04 04:28:00,
2013-05-03 23:34:00,32.7,30.9,30.03,ENE,64,3.0,4.0,93,0.00,,,0.17,Wunderground v.1.15,2013-05-04 04:34:00,
2013-05-03 23:39:00,32.7,30.9,30.03,NNE,32,3.0,4.0,93,0.00,,,0.17,Wunderground v.1.15,2013-05-04 04:39:00,
2013-05-03 23:44:00,32.7,30.9,30.03,NNE,14,3.0,4.0,93,0.00,,,0.17,Wunderground v.1.15,2013-05-04 04:44:00,
2013-05-03 23:49:00,32.7,30.9,30.03,East,81,3.0,4.0,93,0.00,,,0.17,Wunderground v.1.15,2013-05-04 04:49:00,
2013-05-03 23:54:00,32.7,30.9,30.04,ENE,72,3.0,3.0,93,0.00,,,0.17,Wunderground v.1.15,2013-05-04 04:54:00,